Location: Theydon Bois
(51.6750°N, 0.1050°E)
Time: 17:17:50
(UTC+00:00)

Cosmos 1727 Rocket - Visible Passes

Search period start: 19 January 2018 00:00
Search period end: 29 January 2018 00:00
Orbit: 960 x 997 km, 82.9° (Epoch: 18 January)

Date Brightness Start Highest point End Pass type
(mag) Time Alt. Az. Time Alt. Az. Time Alt. Az.
19 Jan 6.0 05:53:19 10° N 05:58:27 26° ENE 06:03:34 10° ESE visible
20 Jan 5.3 06:19:20 10° N 06:25:12 41° ENE 06:31:05 10° SE visible
21 Jan 6.6 05:01:30 10° NNE 05:05:00 15° NE 05:08:29 10° E visible
21 Jan 4.5 06:45:33 10° N 06:51:47 66° ENE 06:58:02 10° SSE visible
22 Jan 6.1 05:27:02 10° N 05:32:00 24° ENE 05:36:57 10° ESE visible
22 Jan 4.0 07:11:55 10° NNW 07:18:11 77° W 07:24:28 10° S visible
23 Jan 5.4 05:53:00 10° N 05:58:48 37° ENE 06:04:35 10° SE visible
23 Jan6.419:42:55NNE19:42:55NNE19:28:26Svisible
23 Jan6.921:27:35N21:27:35N21:13:18SWvisible
24 Jan 6.6 04:35:21 10° NNE 04:38:31 14° NE 04:41:40 10° E visible
24 Jan 4.6 06:19:12 10° N 06:25:24 61° ENE 06:31:38 10° SSE visible
24 Jan6.218:23:40NNE18:23:40NNE18:11:41SEvisible
24 Jan 5.8 19:55:18 10° S 20:08:20 - N 19:56:34 17° S visible
24 Jan6.821:52:59N21:52:59N21:41:27WSWvisible
25 Jan 6.2 05:00:46 10° N 05:05:33 22° ENE 05:10:20 10° ESE visible
25 Jan 4.0 06:45:32 10° N 06:51:50 84° W 06:58:09 10° S visible
25 Jan 5.1 18:37:33 10° SE 18:48:42 - NNE 18:40:17 23° ESE visible
25 Jan 5.2 20:21:53 10° SSW 20:33:19 14° N 20:34:03 10° N visible
25 Jan6.822:17:55NNW22:17:55NNW22:10:11Wvisible
26 Jan 5.6 05:26:42 10° N 05:32:23 35° ENE 05:38:05 10° SE visible
26 Jan 4.2 07:12:03 10° NNW 07:18:05 51° W 07:24:09 10° SSW visible
26 Jan 4.0 19:02:57 10° SSE 19:08:52 51° E 19:14:51 10° NNE visible
26 Jan 5.3 20:49:00 10° SW 20:54:34 34° WNW 21:00:12 10° N visible
27 Jan 6.7 04:09:15 10° NNE 04:12:01 13° NE 04:14:47 10° ENE visible
27 Jan 4.7 05:52:51 10° N 05:59:01 56° ENE 06:05:13 10° SSE visible
27 Jan 5.3 17:46:56 10° ESE 17:50:38 17° ENE 17:54:20 10° NE visible
27 Jan 3.8 19:28:56 10° S 19:35:07 84° E 19:41:22 10° N visible
27 Jan 6.1 21:16:45 10° WSW 21:21:24 22° WNW 21:26:07 10° N visible
28 Jan 6.3 04:34:31 10° NNE 04:39:06 21° ENE 04:43:41 10° ESE visible
28 Jan 4.1 06:19:10 10° N 06:25:29 90° E 06:31:50 10° S visible
28 Jan 4.7 18:11:24 10° SE 18:16:29 28° E 18:21:38 10° NNE visible
28 Jan 4.4 19:55:26 10° SSW 20:01:32 61° WNW 20:07:42 10° N visible
28 Jan 6.6 21:45:24 10° W 21:48:27 14° NW 21:51:31 10° NNW visible
